Regional Weather Roundup
Issued by NWS Little Rock, AR

Home | Current Version | Previous Version | Text Only | Print | Product List | Glossary Off
Versions: 1 2 3 4 5 6 7 8 9 10 11 12 13 14 15 16 17 18 19 20 21 22 23 24 25 26 27 28 29 30 31 32 33 34 35 36 37 38 39 40 41 42 43 44 45 46 47 48 49 50

000
ASUS44 KLZK 220205
RWRLZK

WEATHER ROUNDUP FOR ARKANSAS
NATIONAL WEATHER SERVICE LITTLE ROCK AR
900 PM CDT THU MAY 21 2015

NOTE: "FAIR" INDICATES FEW OR NO CLOUDS BELOW 12,000 FEET WITH NO
SIGNIFICANT WEATHER AND/OR OBSTRUCTIONS TO VISIBILITY.

ARZ001-003-010-029-220300-
NORTHWEST ARKANSAS

CITY           SKY/WX    TMP DP  RH WIND       PRES   REMARKS
FAYETTEVILLE   CLEAR     54  49  83 CALM      30.20R
FORT SMITH     CLEAR     63  49  60 NE6       30.17R
HARRISON       CLEAR     53  46  77 CALM      30.21S
BENTONVILLE    CLEAR     57  45  62 NE3       30.20S
ROGERS         CLEAR     56  47  71 E3        30.21S
SILOAM SPGS    CLEAR     54  43  66 CALM      30.21S
HIGHFILL       PTCLDY    56  47  71 NE5       30.19S
SPRINGDALE     CLEAR     55  48  76 E3        30.21F
$$

ARZ004-005-016-220300-
NORTH CENTRAL ARKANSAS

CITY           SKY/WX    TMP DP  RH WIND       PRES   REMARKS
BATESVILLE     CLEAR     57  48  72 CALM      30.20S
FLIPPIN        CLEAR     57  46  67 NE3       30.18F
MTN HOME       CLEAR     54  47  77 CALM      30.20R
$$

ARZ040-041-220300-
WEST CENTRAL ARKANSAS

CITY           SKY/WX    TMP DP  RH WIND       PRES   REMARKS
MENA           CLOUDY    61  55  82 CALM      30.17S
MOUNT IDA      CLEAR     58  54  86 CALM      30.16R
$$

ARZ009-017-025-026-028-220300-
NORTHEAST ARKANSAS

CITY           SKY/WX    TMP DP  RH WIND       PRES   REMARKS
JONESBORO      CLEAR     52  49  89 E6        30.21S
NEWPORT        CLEAR     58  52  80 E7        30.22S
WALNUT RIDGE   CLEAR     57  48  72 E7        30.22R
BLYTHEVILLE    CLEAR     53  50  89 N7        30.22R
$$

ARZ022-023-033-042-044-220300-
CENTRAL ARKANSAS

CITY           SKY/WX    TMP DP  RH WIND       PRES   REMARKS
LITTLE ROCK    PTCLDY    59  50  72 E5        30.19S
N LITTLE ROCK  PTCLDY    59  54  83 E5        30.19S
JACKSONVILLE   CLEAR     57  51  80 SE5       30.18S
HOT SPRINGS    CLEAR     60  51  72 CALM      30.18R
RUSSELLVILLE   CLEAR     60  50  69 E3        30.18S
CLINTON        FAIR      55  52  88 CALM      30.21R
$$

ARZ036-220300-
EAST ARKANSAS

CITY           SKY/WX    TMP DP  RH WIND       PRES   REMARKS
WEST MEMPHIS   CLEAR     53  48  83 E3        30.20S
$$

ARZ050-053-066-070-073-220300-
SOUTHWEST ARKANSAS

CITY           SKY/WX    TMP DP  RH WIND       PRES   REMARKS
ARKADELPHIA    FAIR      61  59  93 CALM      30.18S
CAMDEN         PTCLDY    55  52  88 CALM      30.18S
TEXARKANA      PTCLDY    59  56  89 CALM      30.16S
EL DORADO      MOCLDY    57  54  89 E5        30.18S
DE QUEEN       PTCLDY    60  58  92 CALM      30.14S
$$

ARZ056-057-069-220300-
SOUTHEAST ARKANSAS

CITY           SKY/WX    TMP DP  RH WIND       PRES   REMARKS
PINE BLUFF     CLEAR     57  51  80 E6        30.19R
STUTTGART      CLEAR     57  48  72 E9        30.19S
MONTICELLO     CLEAR     55  51  86 CALM      30.19R

$$




USA.gov is the U.S. government's official web portal to all federal, state and local government web resources and services.